[[{"header":{"parameterUnit":"m.s-1","parameterCategory":1,"la1":30.2991,"la2":30.254,"lo1":-89.0895,"lo2":-89.0444,"dy":0.0017,"dx":0.0017,"nx":28,"ny":28,"refTime":"2024-04-24T21:00:00:Z","depth":0,"parameterNumber":2,"parameterNumberName":"U-component_of_WINDS"},"data":[0,0,0,0,0,0,0,0,0,0,0,0,0,0,0,0,0,0,0,0,0,0,0,0,0,0,0,0,0,0,0,0,0,0,0,0,0,0,0,0,0,0,0,0,0,0,0,0,0,0,0,0,0,0,0,0,0,0,-3.6022,-3.6024,0,-3.6148,-3.615,-3.6151,-3.6154,-3.6152,-3.615,-3.6149,-3.6278,-3.6283,-3.6288,0,0,0,0,0,0,0,0,0,0,0,0,0,-3.5785,-3.5789,-3.6022,-3.6024,-3.6025,-3.6148,-3.615,-3.6151,-3.6154,-3.6152,-3.615,-3.6148,-3.6277,-3.6282,-3.6288,0,0,0,0,0,0,0,0,0,0,0,0,0,-3.5897,-3.579,-3.6022,-3.6041,-3.6044,-3.6148,-3.615,-3.6152,-3.6154,-3.6152,-3.615,-3.6147,-3.6275,-3.6282,-3.6289,-3.6381,0,0,-3.6312,-3.6315,0,0,0,0,0,0,0,0,-3.5891,-3.5906,-3.6037,-3.604,-3.6044,-3.6133,-3.6113,-3.6229,-3.6155,-3.6113,-3.6149,-3.6146,-3.6232,-3.6242,-3.6271,-3.6388,-3.6393,-3.6312,-3.6317,-3.632,-3.6322,0,0,0,0,0,0,0,-3.5883,-3.59,-3.6072,-3.6039,-3.6043,-3.6044,-3.6057,-3.6135,-3.6184,-3.6116,-3.6117,-3.6131,-3.6233,-3.6264,-3.6274,-3.6395,-3.6312,-3.6318,-3.6323,-3.6326,-3.6593,-3.6595,0,0,0,0,0,0,-3.5871,-3.5894,-3.6068,-3.6076,-3.596,-3.605,-3.6065,-3.6107,-3.6183,-3.6192,-3.6133,-3.6131,-3.6253,-3.6266,-3.6279,-3.6391,-3.632,-3.6327,-3.6331,-3.659,-3.6594,-3.6596,0,0,0,0,0,0,-3.5866,-3.5887,-3.6063,-3.5985,-3.6008,-3.6057,-3.6103,-3.611,-3.6141,-3.6196,-3.6205,-3.6156,-3.6251,-3.6269,-3.6356,-3.6396,-3.633,-3.6337,-3.6587,-3.6591,-3.6595,-3.6617,0,0,0,0,0,0,-3.5859,-3.5885,-3.592,-3.5986,-3.6012,-3.6138,-3.6106,-3.6115,-3.6154,-3.6152,-3.622,-3.6228,-3.6251,-3.6345,-3.6363,-3.6405,-3.6342,-3.6584,-3.6589,-3.6594,-3.6613,-3.6621,-3.6629,0,0,0,0,0,-3.5851,-3.5922,-3.5922,-3.5943,-3.6057,-3.614,-3.6155,-3.6179,-3.6157,-3.6193,-3.6228,-3.6226,-3.6389,-3.6354,-3.6374,-3.6419,-3.6581,-3.6587,-3.6593,-3.6609,-3.662,-3.6628,0,0,0,0,0,0,-3.586,-3.5931,-3.5932,-3.6026,-3.6077,-3.614,-3.6186,-3.6189,-3.6248,-3.6243,-3.6271,-3.6287,-3.6373,-3.6405,-3.6365,-3.6512,-3.6482,-3.6493,-3.6488,-3.6498,-3.6506,-3.6495,-3.6348,0,0,0,0,0,-3.5872,-3.5934,-3.5993,-3.607,-3.6096,-3.6137,-3.6174,-3.6188,-3.6242,-3.6264,-3.6305,-3.6358,-3.6421,-3.6461,-3.6522,-3.6618,-3.6633,-3.6659,-3.6667,-3.6673,-3.6681,-3.6734,-3.6746,-3.6616,-3.6616,-3.6616,0,0,-3.59,-3.5946,-3.5983,-3.6073,-3.6114,-3.6177,-3.6155,-3.6222,-3.6269,-3.6274,-3.6358,-3.6391,-3.6452,-3.6543,-3.6586,-3.6572,-3.672,-3.6681,-3.6685,-3.669,-3.6741,-3.6753,-3.6764,-3.662,-3.662,-3.6619,0,0,-3.5981,-3.6023,-3.6092,-3.6133,-3.6196,-3.6223,-3.6239,-3.6303,-3.6324,-3.641,-3.6414,-3.6471,-3.6579,-3.6621,-3.6657,-3.6755,-3.6755,-3.6775,-3.6814,-3.6865,-3.6875,-3.6885,-3.6918,-3.693,-3.6783,-3.6783,-3.6783,0,-3.6007,-3.6102,-3.6127,-3.6194,-3.6233,-3.6241,-3.6311,-3.635,-3.6429,-3.6456,-3.644,-3.6576,-3.6617,-3.6718,-3.6742,-3.6772,-3.6791,-3.6766,-3.6872,-3.6881,-3.689,-3.6923,-3.6936,-3.6785,-3.6785,-3.6784,-3.6784,0,-3.613,-3.6196,-3.6244,-3.6319,-3.6365,-3.6433,-3.6468,-3.6511,-3.6522,-3.655,-3.6637,-3.6687,-3.6758,-3.6783,-3.6795,-3.6887,-3.6876,-3.6866,-3.6836,-3.6904,-3.6935,-3.6948,-3.6787,-3.6787,-3.6786,-3.6786,0,0,-3.6219,-3.6308,-3.6326,-3.636,-3.643,-3.6481,-3.655,-3.6619,-3.6654,-3.6709,-3.6767,-3.6858,-3.6849,-3.689,-3.6906,-3.6951,-3.7024,-3.6936,-3.6937,-3.6949,-3.7128,-3.7134,-3.7148,-3.7026,-3.7028,-3.703,-3.7122,0,-3.6307,-3.6429,-3.6454,-3.6559,-3.6619,-3.6628,-3.6688,-3.6737,-3.6766,-3.6822,-3.6854,-3.6917,-3.6901,-3.6926,-3.6971,-3.7006,-3.706,-3.7,-3.7079,-3.7082,-3.7062,-3.7164,-3.7171,-3.7255,-3.7135,-3.7137,-3.7138,0,-3.6426,-3.6483,-3.6594,-3.6655,-3.6682,-3.6735,-3.68,-3.6853,-3.691,-3.6928,-3.6973,-3.6985,-3.7056,-3.7025,-3.7124,-3.7082,-3.7116,-3.7139,-3.7143,-3.7149,-3.7113,-3.7172,-3.7283,-3.7295,-3.7158,-3.7156,-3.7155,0,-3.6478,-3.6583,-3.6663,-3.6692,-3.6766,-3.6803,-3.6836,-3.689,-3.693,-3.6987,-3.7013,-3.7078,-3.7113,-3.7164,-3.7192,-3.7167,-3.7289,-3.726,-3.7305,-3.7304,-3.7329,-3.7327,-3.7445,-3.7354,-3.7354,-3.7353,-3.7353,0,-3.6573,-3.664,-3.6687,-3.6736,-3.6812,-3.684,-3.6914,-3.6947,-3.6995,-3.705,-3.7062,-3.7114,-3.715,-3.7207,-3.723,-3.7308,-3.7324,-3.734,-3.7345,-3.7338,-3.7336,-3.736,-3.7354,-3.7357,-3.7356,-3.7355,-3.7355,0,-3.6643,-3.6678,-3.6765,-3.6828,-3.6845,-3.6898,-3.6952,-3.7,-3.7029,-3.7099,-3.7117,-3.7163,-3.7231,-3.7265,-3.7349,-3.7365,-3.7452,-3.7455,-3.7433,-3.7435,-3.7477,-3.7472,-3.7613,-3.7633,-3.753,-3.7531,-3.7532,0,-3.6701,-3.6753,-3.6821,-3.6858,-3.6892,-3.6953,-3.6993,-3.7023,-3.7065,-3.7133,-3.7173,-3.7241,-3.7297,-3.7405,-3.7446,-3.751,-3.7513,-3.7558,-3.7523,-3.7514,-3.7512,-3.7508,-3.7513,-3.7564,-3.7565,-3.7566,-3.7566,0,-3.6798,-3.6813,-3.6871,-3.6935,-3.6983,-3.7035,-3.7086,-3.7116,-3.7155,-3.7201,-3.727,-3.7313,-3.74,-3.7467,-3.7534,-3.7568,-3.7574,-3.7577,-3.7591,-3.7583,-3.7568,-3.7576,-3.7448,-3.7574,-3.7573,-3.7572,-3.7572,-3.7572,-3.6863,-3.6909,-3.6964,-3.7028,-3.707,-3.7118,-3.7165,-3.7201,-3.7259,-3.733,-3.7345,-3.7418,-3.7473,-3.7564,-3.76,-3.7658,-3.7648,-3.7668,-3.7673,-3.7677,-3.7678,-3.756,-3.767,-3.767,-3.767,-3.767,-3.767,0,-3.696,-3.6996,-3.7055,-3.7126,-3.7176,-3.7177,-3.7234,-3.7276,-3.734,-3.739,-3.7445,-3.7524,-3.759,-3.7636,-3.7702,-3.774,-3.7744,-3.7756,-3.7753,-3.776,-3.7684,-3.7665,-3.7751,-3.7751,-3.7751,-3.7751,-3.7751,-3.7751,-3.7017,-3.7095,-3.7115,-3.7214,-3.725,-3.7321,-3.7353,-3.7397,-3.7437,-3.7525,-3.7579,-3.7609,-3.7658,-3.7728,-3.7788,-3.78,-3.7823,-3.7835,-3.7847,-3.7774,-3.7766,-3.7757,-3.7739,-3.784,-3.7841,-3.7918,-3.7919,-3.792]},{"header":{"parameterUnit":"m.s-1","parameterCategory":1,"la1":30.2991,"la2":30.254,"lo1":-89.0895,"lo2":-89.0444,"dy":0.0017,"dx":0.0017,"nx":28,"ny":28,"refTime":"2024-04-24T21:00:00:Z","depth":0,"parameterNumber":3,"parameterNumberName":"V-component_of_WINDS"},"data":[0,0,0,0,0,0,0,0,0,0,0,0,0,0,0,0,0,0,0,0,0,0,0,0,0,0,0,0,0,0,0,0,0,0,0,0,0,0,0,0,0,0,0,0,0,0,0,0,0,0,0,0,0,0,0,0,0,0,4.9082,4.9082,0,4.9073,4.9073,4.9073,4.897,4.8968,4.8965,4.8963,4.8954,4.8956,4.8958,0,0,0,0,0,0,0,0,0,0,0,0,0,4.9011,4.9013,4.9082,4.9082,4.9082,4.9073,4.9073,4.9073,4.8971,4.8968,4.8964,4.8961,4.8953,4.8955,4.8958,0,0,0,0,0,0,0,0,0,0,0,0,0,4.9026,4.9013,4.9082,4.903,4.9025,4.9073,4.9073,4.9073,4.8971,4.8967,4.8964,4.896,4.8952,4.8955,4.8958,4.9056,0,0,4.8968,4.897,0,0,0,0,0,0,0,0,4.9025,4.9029,4.9038,4.9034,4.9028,4.9019,4.9044,4.9067,4.8972,4.8992,4.8963,4.8958,4.8978,4.8979,4.8986,4.9055,4.9055,4.8968,4.897,4.8972,4.8973,0,0,0,0,0,0,0,4.9024,4.9028,4.9078,4.9038,4.9032,4.9007,4.9005,4.9048,4.9007,4.899,4.8982,4.8983,4.8975,4.8983,4.8985,4.9055,4.8968,4.8971,4.8973,4.8975,4.9202,4.9206,0,0,0,0,0,0,4.9031,4.9028,4.9079,4.9078,4.9017,4.9011,4.9009,4.9026,4.9006,4.8999,4.8986,4.8978,4.8979,4.8981,4.8984,4.9096,4.8972,4.8975,4.8977,4.9198,4.9203,4.9207,0,0,0,0,0,0,4.9029,4.9036,4.9079,4.9051,4.9055,4.9017,4.9036,4.9028,4.9035,4.9003,4.8995,4.9002,4.8976,4.898,4.9038,4.9094,4.8976,4.8979,4.9193,4.92,4.9205,4.9321,0,0,0,0,0,0,4.9028,4.9036,4.9073,4.9053,4.9057,4.9134,4.904,4.903,4.9041,4.9031,4.9016,4.901,4.8974,4.9034,4.9042,4.9096,4.8982,4.9188,4.9196,4.9203,4.9312,4.933,4.9346,0,0,0,0,0,4.9026,4.9106,4.9075,4.9082,4.9102,4.9137,4.9139,4.9096,4.9046,4.9083,4.9062,4.901,4.9087,4.9041,4.9049,4.9105,4.9184,4.9194,4.9203,4.9304,4.9326,4.9345,0,0,0,0,0,0,4.9134,4.9103,4.9068,4.9145,4.9144,4.912,4.9164,4.9121,4.9135,4.9125,4.9071,4.9068,4.9135,4.9126,4.9075,4.9198,4.9127,4.9138,4.9201,4.9222,4.9239,4.9239,4.8984,0,0,0,0,0,4.9167,4.9198,4.9169,4.9239,4.9241,4.9203,4.9217,4.9184,4.9181,4.9181,4.9164,4.9164,4.9188,4.9205,4.9225,4.931,4.9305,4.9353,4.937,4.9384,4.9394,4.9438,4.9458,4.9238,4.9238,4.9238,0,0,4.9235,4.9222,4.9245,4.9261,4.9257,4.929,4.9204,4.9243,4.9267,4.9187,4.924,4.9229,4.9225,4.9297,4.9328,4.9292,4.9454,4.9396,4.9407,4.941,4.9449,4.947,4.9489,4.9244,4.9243,4.9242,0,0,4.9376,4.937,4.9427,4.9424,4.9419,4.9393,4.9407,4.9389,4.9378,4.9431,4.9371,4.9399,4.9442,4.9441,4.9447,4.9587,4.954,4.9595,4.9684,4.9727,4.9744,4.976,4.9809,4.9827,4.9606,4.9606,4.9606,0,4.9461,4.9509,4.9462,4.9505,4.9513,4.9442,4.9499,4.9499,4.9501,4.9508,4.9467,4.9519,4.9511,4.9582,4.9616,4.9623,4.9637,4.9596,4.9746,4.976,4.9774,4.982,4.9839,4.9613,4.9612,4.9611,4.9611,0,4.9613,4.9648,4.9695,4.9698,4.9712,4.9762,4.9722,4.9741,4.9707,4.9686,4.9741,4.9729,4.9745,4.976,4.9727,4.9826,4.9803,4.9755,4.9682,4.9802,4.9845,4.9862,4.9622,4.962,4.9618,4.9616,0,0,4.9822,4.9798,4.9816,4.9816,4.9805,4.983,4.9877,4.9893,4.991,4.9914,4.9952,4.9989,4.9944,4.9951,4.9917,4.9955,5.0066,4.9902,4.9901,4.9932,5.0173,5.0209,5.023,5.0035,5.0038,5.0041,5.0173,0,4.9957,5.0035,4.9993,5.0077,5.0107,5.004,5.008,5.0078,5.0059,5.0082,5.0061,5.0089,5.0028,5.0031,5.0066,5.0045,5.0114,5.0035,5.0069,5.0071,5.0071,5.0252,5.029,5.0416,5.019,5.0193,5.0195,0,5.0124,5.0135,5.0221,5.0203,5.0215,5.0252,5.0262,5.0286,5.0281,5.0265,5.0272,5.0229,5.0273,5.0203,5.0262,5.021,5.0222,5.0214,5.0217,5.0218,5.0139,5.0257,5.0455,5.0473,5.022,5.0218,5.0217,0,5.0266,5.0302,5.0358,5.036,5.0342,5.0369,5.0363,5.0354,5.0366,5.0376,5.0383,5.0398,5.0406,5.0418,5.0381,5.0333,5.0446,5.0372,5.0433,5.0434,5.0459,5.0458,5.066,5.0469,5.0468,5.0468,5.0468,0,5.0421,5.0476,5.0421,5.0456,5.0516,5.0467,5.0528,5.0514,5.0508,5.0538,5.0481,5.0511,5.046,5.0484,5.0455,5.0509,5.0514,5.0501,5.0493,5.0506,5.0507,5.0512,5.0502,5.0473,5.0472,5.0471,5.047,0,5.0589,5.0555,5.0611,5.0589,5.0584,5.0629,5.061,5.064,5.0618,5.0657,5.0663,5.0628,5.0654,5.0618,5.0641,5.0621,5.0695,5.0673,5.0696,5.0689,5.0752,5.0747,5.0964,5.099,5.0783,5.0785,5.0787,0,5.0689,5.073,5.0712,5.0728,5.0724,5.0751,5.0762,5.0717,5.0731,5.0729,5.076,5.0781,5.0796,5.0841,5.0817,5.0834,5.0812,5.0887,5.0814,5.0826,5.0812,5.081,5.0813,5.0902,5.0905,5.0907,5.0908,0,5.087,5.0851,5.087,5.0883,5.0898,5.0906,5.091,5.0927,5.0878,5.0898,5.0923,5.0935,5.0957,5.0979,5.099,5.0983,5.0938,5.0932,5.0946,5.096,5.0971,5.0965,5.0735,5.0926,5.0925,5.0923,5.0922,5.0922,5.1007,5.1039,5.1031,5.1054,5.1052,5.1057,5.1084,5.1065,5.1085,5.11,5.1072,5.1104,5.1099,5.1108,5.1106,5.1131,5.1099,5.1121,5.1126,5.1132,5.1141,5.0968,5.1133,5.1133,5.1132,5.1132,5.1131,0,5.1184,5.1175,5.1196,5.1203,5.1221,5.1177,5.1179,5.1197,5.1226,5.1224,5.1239,5.1269,5.1289,5.1268,5.1284,5.1308,5.1288,5.1314,5.1311,5.131,5.117,5.1155,5.133,5.133,5.133,5.133,5.133,5.133,5.1278,5.1331,5.1311,5.1362,5.1352,5.1384,5.1388,5.1392,5.1391,5.1426,5.1442,5.1428,5.1418,5.1433,5.145,5.1443,5.1452,5.1485,5.1471,5.134,5.132,5.1302,5.1287,5.1488,5.1488,5.1609,5.161,5.1611]}]]